Wind_Speed
19 19 17 18 19 19 18 18 17 15 14 12 11 10 9 10 9 7 7 7 7 6 6 6 6 6 5 5 5 6 6 6 6 7 7 6 7 8 8 8 10 11 10 10 10 9 9 9 9
20 20 19 19 21 20 19 18 17 16 15 13 12 10 10 11 10 8 7 8 7 7 6 7 7 6 6 5 5 5 6 6 6 7 7 7 7 8 8 9 10 10 10 9 9 9 9 8 9
20 20 20 20 21 20 20 19 18 16 15 14 12 11 11 11 11 10 9 8 8 8 8 8 8 7 6 6 6 6 6 6 6 7 7 7 7 8 9 9 9 9 9 9 8 8 8 8 8
20 20 21 22 21 21 21 20 19 17 16 15 14 12 11 10 10 10 9 8 8 8 8 8 8 8 7 6 7 7 6 5 6 7 7 7 7 8 9 9 8 8 8 8 8 7 7 7 7
20 20 21 22 21 21 21 21 20 18 16 16 15 13 12 11 10 10 9 9 9 9 8 9 9 9 8 8 7 7 6 5 5 7 8 7 8 8 8 8 8 7 7 7 7 7 6 7 6
19 20 21 22 20 21 20 20 19 18 17 16 16 15 13 12 12 11 10 11 10 10 9 9 9 10 9 8 7 7 6 5 6 6 7 8 8 8 8 8 7 7 7 7 6 6 6 6 6
18 20 21 21 20 20 20 20 19 19 18 17 16 16 15 13 13 12 12 12 11 11 10 10 10 10 10 9 7 6 5 5 6 7 8 8 8 8 8 7 7 7 6 6 6 6 7 6 5
17 19 21 21 20 20 20 20 19 19 18 17 16 16 16 15 15 15 13 13 12 12 11 11 10 10 10 9 8 8 7 7 8 8 8 8 8 7 7 7 7 6 6 6 6 6 6 6 5
16 18 19 20 19 19 20 20 20 19 19 18 18 17 16 16 16 16 15 13 13 13 12 11 11 10 10 10 10 9 8 9 9 9 8 8 8 7 7 7 7 6 6 6 6 5 5 6 5
17 17 17 18 18 19 20 21 21 20 20 19 18 17 16 16 16 16 15 14 14 13 12 11 11 10 9 9 9 9 9 8 8 8 8 8 8 8 8 7 6 6 6 6 6 5 5 5 4
16 16 16 17 18 19 20 20 20 20 20 19 19 18 18 17 16 15 15 15 15 14 13 12 11 11 10 9 9 9 8 8 8 9 9 9 9 8 8 7 7 7 7 6 6 5 4 4 4
14 16 16 16 17 19 19 20 20 19 19 19 19 18 18 17 16 15 15 15 14 14 14 13 13 12 11 10 9 9 8 8 7 8 8 8 7 7 7 7 7 6 6 5 5 5 4 4 3
13 15 15 14 16 18 18 19 20 19 19 19 18 18 17 17 16 15 15 14 14 14 13 12 12 12 11 11 10 10 9 8 7 8 8 7 6 6 7 6 6 6 5 5 4 4 3 3 2
10 12 13 13 14 17 18 18 18 18 18 18 18 17 17 17 16 15 15 14 14 13 13 12 11 11 11 11 10 10 9 8 7 7 7 7 6 7 6 6 6 6 5 4 4 4 3 3 3
7 9 9 10 12 14 15 16 17 16 16 17 17 18 17 17 16 15 15 14 14 13 13 12 11 10 10 10 10 10 10 8 8 7 6 7 8 7 6 6 6 6 5 4 4 3 3 2 2
5 6 7 8 9 10 12 14 15 15 15 16 16 17 17 17 16 15 14 13 13 12 12 12 11 10 9 9 9 10 10 9 8 7 6 7 8 7 7 6 5 5 4 4 4 3 3 2 2
3 4 5 6 7 8 9 10 13 14 14 14 15 16 16 16 15 15 15 14 13 12 12 11 11 11 10 9 9 8 8 8 8 7 7 7 7 7 7 6 5 4 3 3 3 2 2 1 1
2 2 3 4 4 5 6 8 10 11 12 13 13 14 14 15 15 15 14 14 13 12 12 11 11 11 11 9 9 9 8 8 8 8 7 7 6 6 6 6 5 4 3 3 3 2 1 1 1
1 1 4 4 4 4 5 6 7 9 9 10 11 12 12 14 15 15 14 13 13 12 12 11 11 10 10 9 9 8 8 7 7 7 7 6 5 5 5 5 3 3 3 2 1 1 1 2 2
5 3 5 8 6 6 5 5 7 7 7 8 9 10 11 12 14 14 13 13 12 12 12 11 11 10 10 9 8 8 8 7 7 6 6 5 5 5 4 3 3 3 3 2 2 1 2 3 3
8 5 6 8 7 7 5 6 6 5 7 8 8 9 10 12 13 12 13 13 13 11 11 11 11 10 10 9 8 7 7 7 6 6 5 5 5 5 4 3 3 3 3 2 2 2 3 3 3
11 7 8 9 9 8 8 8 8 5 6 7 7 7 8 10 10 10 11 12 12 11 10 10 10 9 9 8 7 7 6 6 6 5 4 5 5 4 4 3 2 2 2 2 2 2 3 3 3
13 10 11 11 11 10 9 8 8 8 7 6 5 5 7 7 7 8 9 10 10 10 10 9 8 8 8 8 7 6 6 5 5 5 4 4 4 3 3 3 3 2 2 2 2 2 3 3 4
15 15 13 12 13 12 9 8 8 10 8 4 3 4 5 6 6 6 6 7 8 9 9 8 7 7 7 7 7 7 6 5 4 4 4 4 4 3 3 3 3 2 2 2 3 3 3 3 4
18 17 16 15 14 12 9 8 7 9 7 4 2 3 5 6 5 5 5 5 6 7 7 7 6 5 5 6 6 6 6 5 5 4 4 4 3 3 3 3 3 2 2 3 3 4 4 4 5
21 19 18 16 14 13 12 10 8 9 8 7 4 3 4 5 5 4 5 4 4 5 6 6 6 5 5 5 5 5 5 4 4 4 4 3 3 3 3 2 3 3 3 3 4 4 4 5 5
21 20 19 17 15 14 14 13 10 9 8 7 5 6 6 6 5 4 4 4 4 4 5 5 4 4 4 4 5 5 4 4 4 4 4 4 3 3 3 3 3 3 4 4 4 4 5 5 5
22 20 20 20 18 17 15 13 11 9 8 6 6 7 6 7 7 5 4 4 4 4 4 3 3 4 4 4 4 4 4 4 4 4 4 4 3 3 3 3 3 4 4 5 5 5 5 5 5
23 23 22 22 20 19 18 15 13 11 10 9 7 7 8 8 8 6 6 5 5 4 4 3 3 4 4 4 4 4 4 4 4 4 4 4 3 3 3 3 4 5 5 5 5 5 5 5 6
25 24 24 24 23 22 22 20 16 15 13 11 9 7 8 9 8 9 7 6 6 6 5 5 5 5 5 6 5 5 5 6 5 5 5 4 4 3 3 4 5 5 5 5 5 5 5 6 7
Wind_Direction
55 52 52 48 43 40 39 41 42 41 44 47 46 54 58 61 70 84 86 94 97 101 102 110 125 126 130 130 133 147 150 148 145 142 145 148 146 142 141 144 137 135 129 126 125 122 124 124 121
53 50 50 48 43 38 38 41 43 45 46 47 48 54 59 67 71 85 88 86 92 96 105 106 111 116 118 117 122 136 144 145 145 144 148 152 148 141 140 142 142 136 131 130 129 127 125 125 125
54 49 50 48 44 40 40 41 44 47 47 46 50 58 63 69 72 87 92 94 98 97 102 108 109 114 117 117 120 127 131 140 144 144 147 149 145 141 139 138 140 137 136 134 133 132 129 129 127
54 49 48 46 44 43 41 42 46 47 46 47 51 59 65 71 75 84 91 97 95 95 97 105 108 111 112 114 120 124 128 136 144 145 149 149 146 143 141 144 146 143 141 139 137 135 131 130 127
55 49 45 44 44 44 43 44 47 45 45 48 50 56 68 72 77 81 86 91 93 94 94 98 102 102 103 106 113 119 125 135 146 152 157 158 154 148 145 148 146 144 143 142 138 134 131 134 129
55 48 43 42 42 44 46 45 46 45 45 47 50 53 61 70 77 79 83 85 88 89 91 95 98 99 99 103 109 112 118 129 138 144 149 151 152 152 149 148 147 147 144 143 141 138 137 135 127
51 48 45 44 42 43 46 46 45 46 47 49 53 55 58 67 74 77 80 81 83 83 87 91 95 96 95 96 99 104 109 119 131 140 143 145 146 150 149 145 146 147 147 146 144 141 140 135 131
53 49 46 45 41 43 47 48 48 49 48 50 55 57 61 67 71 75 79 80 83 84 84 89 92 95 94 91 94 103 104 110 121 130 137 140 141 145 146 145 144 145 146 148 147 145 142 137 136
58 50 43 43 41 44 49 50 51 52 50 52 54 55 61 67 73 75 77 80 81 83 85 88 90 92 93 93 93 99 102 106 116 124 132 137 138 142 143 145 144 143 143 146 154 149 143 141 143
60 51 44 43 44 47 50 51 52 52 52 53 55 58 60 66 72 76 75 74 76 77 77 83 86 88 89 92 92 99 101 106 112 118 123 129 131 134 141 146 147 145 145 151 156 155 147 145 145
59 58 49 44 45 49 53 52 52 53 52 54 56 59 61 65 70 73 75 73 73 73 74 80 84 85 87 89 90 96 102 108 111 112 117 123 127 135 141 145 144 149 154 152 148 152 150 150 148
61 58 53 49 45 50 53 52 51 52 52 52 56 59 62 65 68 69 70 71 71 70 71 74 82 86 88 89 89 93 101 104 111 118 121 125 125 135 146 150 154 157 153 145 142 148 158 154 161
62 58 51 52 49 50 52 53 54 54 53 51 54 58 61 63 66 65 67 72 73 71 69 71 75 81 84 83 84 89 96 97 110 120 122 118 117 129 142 152 158 157 154 158 160 155 154 161 174
69 59 54 53 52 50 49 51 54 55 53 52 54 57 58 61 64 64 65 70 70 69 70 72 77 80 82 85 83 83 90 100 109 114 117 116 121 123 129 136 142 151 157 152 144 135 133 152 159
76 60 55 58 53 51 47 47 50 53 53 52 52 53 55 57 58 60 63 67 66 64 67 73 78 77 81 81 77 79 84 93 102 111 115 117 121 122 120 125 128 138 150 152 150 149 146 143 164
82 63 54 58 55 47 47 44 45 49 51 50 50 49 52 54 54 55 57 63 62 60 63 68 73 74 77 80 82 83 81 91 97 100 109 116 118 121 121 126 131 136 144 155 160 162 157 159 194
98 57 54 50 39 30 36 38 41 41 44 47 48 48 48 50 52 54 55 59 59 60 61 63 67 71 77 82 83 81 82 90 95 95 102 114 119 122 121 128 138 146 151 159 167 168 183 205 217
124 53 14 8 10 6 25 34 35 35 39 45 46 48 45 46 49 50 55 53 54 58 60 62 65 69 75 81 82 82 81 90 99 99 102 110 121 127 130 134 128 140 150 158 173 179 210 248 274
170 326 325 334 341 332 3 31 31 31 35 43 45 48 47 46 46 48 50 48 50 55 59 61 61 67 73 77 77 75 73 77 90 100 105 114 119 121 120 122 115 113 118 113 94 143 255 295 315
222 263 297 308 310 313 343 2 3 23 25 32 39 42 49 42 37 41 46 47 48 53 55 56 60 66 71 73 72 71 73 75 81 91 102 105 109 106 100 98 96 83 78 69 49 28 322 309 298
222 249 274 287 292 305 319 332 345 15 18 21 26 33 40 39 36 36 40 44 45 49 52 53 57 63 68 70 68 67 72 77 82 82 84 85 94 86 81 85 84 77 71 61 47 15 1 353 334
226 239 262 269 281 296 306 310 327 344 8 25 27 25 28 30 33 35 37 38 38 39 47 52 55 58 58 61 64 65 67 77 76 78 80 78 74 75 75 77 79 73 60 43 28 11 1 0 357
225 241 246 246 255 269 279 293 323 334 342 3 12 11 14 18 28 33 30 29 31 32 34 44 52 56 56 56 59 61 68 70 63 61 68 70 65 56 58 54 44 42 42 31 13 358 350 349 347
221 230 235 241 251 257 261 280 312 324 326 349 15 360 351 1 8 20 18 16 21 25 31 40 49 56 52 49 52 53 64 68 57 54 51 53 50 46 45 49 46 41 36 23 15 4 349 347 343
220 226 231 237 253 262 259 264 293 311 308 320 348 344 335 338 345 353 5 8 8 15 25 29 38 45 42 43 42 46 55 58 56 50 36 40 45 43 41 41 30 15 3 11 7 355 346 341 338
220 226 232 240 254 260 257 263 281 293 286 292 305 309 319 318 321 330 343 353 0 9 9 14 24 28 30 32 34 34 39 40 37 34 26 25 26 29 33 27 17 10 3 1 355 347 340 334 332
220 227 232 241 251 259 260 262 275 284 277 281 296 304 309 310 304 305 318 326 335 340 345 354 8 15 19 21 24 23 20 16 13 13 12 20 21 21 15 6 358 355 348 340 337 330 327 327 332
223 225 231 237 243 254 259 263 264 276 273 267 279 302 302 304 300 285 295 305 314 325 329 333 349 359 354 356 3 5 3 0 358 355 357 359 5 10 6 357 356 350 345 339 328 322 321 326 329
222 224 230 235 240 249 255 260 265 266 265 263 275 296 302 299 296 296 292 295 301 308 311 308 319 329 328 326 332 330 329 329 336 335 334 338 341 347 356 3 3 356 346 339 338 334 322 319 322
223 225 228 234 237 245 252 260 264 265 266 267 276 288 301 297 296 298 290 285 287 290 289 289 297 300 302 298 297 304 308 306 310 317 316 317 324 328 342 348 346 343 340 336 334 333 329 320 319
Height
5889 5888 5887 5886 5885 5883 5880 5879 5877 5875 5875 5873 5872 5871 5870 5869 5869 5871 5868 5867 5867 5867 5867 5867 5867 5868 5869 5869 5870 5870 5871 5872 5873 5874 5875 5876 5877 5878 5878 5879 5879 5880 5881 5882 5882 5883 5883 5883 5884
5891 5890 5889 5888 5885 5884 5882 5880 5879 5878 5876 5874 5873 5872 5871 5870 5869 5869 5868 5868 5868 5868 5868 5868 5868 5869 5869 5870 5870 5871 5871 5872 5873 5874 5875 5876 5877 5878 5879 5880 5881 5881 5882 5883 5884 5884 5885 5885 5885
5893 5892 5891 5889 5887 5886 5884 5882 5880 5879 5877 5876 5875 5873 5872 5871 5870 5869 5869 5869 5869 5869 5869 5869 5869 5870 5870 5870 5871 5871 5872 5873 5873 5875 5876 5877 5878 5879 5880 5881 5882 5883 5884 5884 5885 5885 5886 5886 5886
5895 5894 5893 5891 5889 5888 5886 5884 5882 5880 5879 5878 5877 5875 5874 5873 5871 5870 5870 5870 5870 5870 5870 5870 5870 5870 5870 5871 5871 5872 5873 5873 5874 5875 5876 5878 5879 5880 5881 5882 5883 5884 5885 5885 5886 5886 5886 5887 5887
5898 5896 5894 5892 5891 5889 5888 5886 5884 5883 5881 5879 5878 5877 5876 5874 5872 5872 5871 5871 5871 5871 5871 5871 5871 5871 5871 5872 5872 5873 5873 5874 5875 5876 5877 5878 5879 5881 5882 5883 5884 5885 5885 5886 5887 5887 5887 5888 5888
5901 5898 5897 5895 5893 5892 5890 5889 5887 5886 5883 5881 5880 5879 5877 5876 5874 5873 5873 5873 5872 5872 5872 5872 5872 5872 5872 5872 5873 5873 5874 5874 5875 5876 5878 5879 5880 5881 5882 5883 5884 5885 5886 5887 5887 5888 5888 5888 5888
5904 5901 5898 5897 5896 5894 5893 5891 5890 5888 5886 5884 5882 5881 5879 5878 5877 5875 5874 5874 5874 5874 5874 5874 5874 5874 5873 5873 5873 5874 5874 5874 5875 5876 5878 5879 5880 5882 5883 5884 5885 5886 5887 5887 5888 5888 5889 5889 5889
5905 5904 5901 5900 5899 5897 5896 5894 5892 5890 5888 5886 5884 5883 5882 5880 5879 5877 5877 5876 5875 5876 5876 5876 5875 5875 5875 5875 5873 5874 5874 5875 5876 5877 5878 5880 5881 5882 5883 5885 5885 5886 5887 5888 5889 5889 5889 5890 5890
5907 5906 5904 5903 5902 5900 5898 5897 5895 5892 5890 5889 5887 5886 5885 5883 5881 5880 5880 5879 5878 5878 5878 5877 5877 5877 5877 5876 5875 5875 5876 5877 5877 5878 5879 5880 5881 5882 5884 5885 5886 5887 5888 5888 5889 5889 5890 5890 5891
5908 5908 5907 5906 5905 5903 5901 5899 5897 5895 5893 5891 5890 5888 5887 5885 5884 5883 5883 5882 5881 5880 5880 5879 5879 5878 5878 5878 5878 5878 5878 5878 5879 5879 5879 5880 5881 5883 5884 5885 5886 5887 5888 5889 5889 5890 5891 5891 5891
5910 5910 5909 5908 5907 5905 5904 5902 5900 5898 5897 5895 5893 5891 5890 5888 5887 5886 5885 5884 5884 5883 5882 5882 5881 5880 5880 5880 5880 5880 5879 5880 5880 5880 5881 5881 5882 5883 5884 5885 5886 5887 5888 5889 5889 5890 5891 5891 5891
5913 5912 5911 5910 5909 5908 5906 5905 5903 5901 5900 5898 5896 5894 5893 5892 5890 5889 5888 5887 5886 5885 5885 5884 5883 5883 5882 5881 5881 5881 5881 5881 5881 5882 5882 5883 5884 5884 5885 5886 5887 5888 5888 5889 5890 5890 5891 5891 5891
5915 5914 5913 5912 5911 5910 5909 5908 5907 5905 5903 5901 5899 5898 5896 5894 5893 5891 5891 5890 5889 5888 5887 5886 5885 5885 5884 5884 5883 5883 5883 5883 5883 5883 5883 5884 5885 5885 5886 5886 5887 5888 5889 5890 5890 5890 5891 5891 5892
5916 5915 5915 5914 5913 5912 5912 5911 5910 5908 5906 5905 5903 5901 5899 5897 5896 5894 5893 5892 5891 5890 5889 5888 5888 5887 5886 5886 5885 5884 5884 5884 5884 5884 5885 5885 5886 5886 5887 5887 5888 5888 5889 5890 5890 5891 5891 5891 5891
5916 5917 5917 5916 5915 5914 5914 5914 5912 5911 5909 5907 5906 5904 5902 5900 5898 5897 5895 5894 5893 5892 5891 5890 5889 5888 5888 5887 5887 5886 5886 5885 5885 5885 5886 5886 5886 5887 5888 5888 5889 5889 5890 5890 5891 5891 5892 5892 5892
5917 5918 5918 5918 5916 5915 5916 5915 5914 5912 5911 5909 5908 5906 5904 5902 5901 5899 5898 5896 5895 5894 5893 5892 5891 5890 5890 5889 5889 5888 5887 5887 5887 5887 5887 5887 5887 5888 5888 5889 5890 5890 5890 5891 5891 5892 5892 5892 5891
5918 5918 5918 5918 5917 5917 5917 5916 5915 5914 5912 5911 5910 5908 5906 5905 5903 5901 5900 5899 5897 5896 5895 5894 5893 5892 5891 5891 5890 5890 5889 5889 5888 5888 5888 5888 5888 5889 5889 5890 5890 5891 5891 5891 5892 5892 5892 5892 5892
5918 5918 5918 5918 5918 5917 5917 5917 5917 5916 5914 5913 5911 5909 5908 5907 5905 5903 5902 5901 5899 5898 5897 5895 5894 5894 5893 5893 5892 5892 5891 5890 5890 5889 5889 5889 5890 5890 5890 5890 5891 5891 5891 5892 5892 5891 5891 5891 5891
5918 5918 5918 5918 5917 5918 5918 5917 5917 5917 5915 5914 5912 5910 5909 5908 5907 5906 5904 5903 5901 5900 5898 5897 5896 5895 5894 5894 5893 5893 5892 5892 5891 5891 5890 5890 5891 5891 5890 5891 5891 5891 5891 5891 5891 5891 5891 5891 5891
5917 5918 5917 5917 5917 5917 5917 5917 5917 5916 5916 5915 5914 5912 5911 5910 5909 5907 5906 5904 5903 5901 5900 5899 5898 5897 5896 5895 5895 5894 5893 5893 5892 5892 5892 5892 5891 5891 5891 5892 5892 5892 5891 5891 5891 5890 5890 5890 5890
5915 5916 5917 5917 5917 5916 5917 5916 5916 5915 5915 5915 5914 5914 5912 5911 5910 5909 5907 5906 5904 5903 5902 5900 5899 5898 5897 5897 5896 5895 5895 5894 5894 5893 5893 5892 5892 5892 5892 5892 5892 5892 5891 5891 5890 5890 5890 5889 5889
5914 5915 5915 5915 5916 5915 5916 5915 5915 5914 5914 5914 5914 5914 5913 5912 5911 5910 5909 5907 5906 5905 5903 5902 5900 5899 5898 5898 5897 5896 5896 5895 5895 5894 5893 5893 5893 5892 5892 5892 5892 5892 5891 5891 5890 5890 5889 5889 5888
5912 5913 5913 5914 5914 5914 5914 5914 5914 5913 5913 5913 5913 5913 5913 5912 5911 5910 5910 5909 5907 5906 5904 5903 5901 5900 5900 5898 5897 5897 5896 5896 5896 5895 5894 5894 5893 5893 5892 5892 5892 5891 5890 5890 5889 5889 5888 5888 5887
5909 5911 5911 5911 5911 5912 5913 5913 5913 5912 5912 5912 5912 5912 5912 5912 5911 5911 5910 5909 5908 5907 5905 5903 5902 5901 5900 5899 5897 5897 5897 5897 5896 5895 5894 5894 5893 5893 5892 5891 5891 5890 5890 5889 5888 5888 5887 5887 5886
5905 5907 5909 5908 5908 5909 5910 5910 5912 5911 5911 5911 5912 5912 5912 5911 5911 5910 5910 5909 5908 5906 5905 5904 5903 5902 5901 5900 5899 5898 5898 5897 5896 5895 5894 5893 5893 5892 5892 5891 5890 5890 5889 5888 5887 5887 5886 5885 5885
5902 5904 5906 5906 5907 5907 5907 5907 5910 5909 5909 5910 5910 5910 5910 5910 5910 5909 5908 5908 5907 5906 5905 5904 5903 5902 5901 5900 5899 5898 5898 5897 5896 5895 5894 5893 5893 5892 5891 5890 5890 5889 5888 5887 5886 5886 5885 5884 5883
5898 5900 5902 5903 5903 5903 5904 5905 5906 5906 5906 5907 5908 5908 5908 5908 5908 5908 5907 5907 5906 5905 5905 5904 5903 5902 5901 5900 5899 5898 5897 5897 5896 5895 5894 5893 5892 5891 5890 5890 5889 5888 5887 5886 5885 5885 5884 5883 5882
5894 5896 5898 5899 5899 5900 5900 5902 5904 5904 5904 5906 5906 5906 5906 5906 5906 5906 5906 5906 5905 5904 5904 5903 5902 5901 5900 5900 5899 5898 5897 5896 5895 5894 5893 5893 5892 5890 5889 5889 5888 5887 5886 5885 5884 5883 5882 5881 5880
5889 5891 5892 5894 5896 5896 5897 5901 5901 5902 5902 5903 5903 5903 5904 5904 5903 5903 5904 5904 5903 5902 5902 5902 5901 5900 5899 5898 5897 5897 5896 5895 5894 5893 5892 5892 5891 5890 5889 5888 5887 5886 5885 5884 5883 5882 5881 5880 5879
5884 5886 5888 5890 5891 5892 5893 5898 5897 5898 5899 5899 5900 5900 5900 5901 5901 5900 5901 5901 5901 5901 5900 5900 5899 5899 5898 5896 5895 5895 5894 5894 5893 5892 5891 5890 5890 5889 5888 5887 5886 5885 5884 5883 5882 5881 5879 5878 5877